PLF102 EPWA-UDYZ

Flight info

Callsign PLF102
Flight time 3h 2m
Altitude 41000
Route XIMBA N195 NATEV DCT ROBTU DCT KENIN DCT KARIL DCT UDROS UM859 KARDE UL851 TBN/N0495F270 P146 YAVUZ B374 INDUR
Aircraft GLF5/M-SBDE2E3FGHIJ3J4J5P2RWXY/LB1D1

Departure

Time 2026-05-04 07:59
Airport Warsaw Chopin Airport (EPWA)

Arrival

Time 2026-05-04 11:01
Airport Zvartnots International Airport (UDYZ)
Time Latitude Longitude Altitude Speed Heading
2026-05-04 07:49 52.17588 20.97088 365 ft 0 kts 242°
2026-05-04 07:55 52.17587 20.97084 365 ft 2 kts 242°
2026-05-04 07:55 52.17569 20.97022 365 ft 5 kts 258°
2026-05-04 07:55 52.17583 20.96985 365 ft 6 kts 329°
2026-05-04 07:56 52.17643 20.96923 365 ft 10 kts 310°
2026-05-04 07:56 52.17627 20.96832 365 ft 11 kts 237°
2026-05-04 07:56 52.17565 20.96670 365 ft 18 kts 239°
2026-05-04 07:56 52.17500 20.96524 365 ft 13 kts 233°
2026-05-04 07:57 52.17462 20.96416 365 ft 8 kts 242°
2026-05-04 07:57 52.17458 20.96350 365 ft 6 kts 298°
2026-05-04 07:57 52.17516 20.96290 365 ft 15 kts 332°
2026-05-04 07:57 52.17580 20.96146 365 ft 14 kts 261°
2026-05-04 07:58 52.17526 20.96053 365 ft 9 kts 207°
2026-05-04 07:58 52.17465 20.96002 365 ft 13 kts 208°
2026-05-04 07:58 52.17371 20.96016 365 ft 17 kts 152°
2026-05-04 07:58 52.17300 20.96079 365 ft 32 kts 152°
2026-05-04 07:59 52.16784 20.96526 365 ft 134 kts 153°
2026-05-04 07:59 52.15828 20.97376 922 ft 172 kts 155°
2026-05-04 07:59 52.14701 20.98390 1947 ft 202 kts 157°
2026-05-04 07:59 52.13450 20.99499 2966 ft 218 kts 157°
2026-05-04 08:00 52.11915 21.00473 3393 ft 261 kts 172°
2026-05-04 08:00 52.10142 21.01063 4820 ft 264 kts 172°
2026-05-04 08:00 52.08373 21.01671 6281 ft 267 kts 172°
2026-05-04 08:02 51.95197 21.10847 14690 ft 341 kts 149°
2026-05-04 08:02 51.93230 21.12990 15975 ft 347 kts 149°
2026-05-04 08:02 51.91209 21.15184 17221 ft 355 kts 149°
2026-05-04 08:03 51.89142 21.17425 18450 ft 363 kts 149°
2026-05-04 08:03 51.87013 21.19727 19757 ft 368 kts 149°
2026-05-04 08:03 51.84902 21.22008 21013 ft 374 kts 148°
2026-05-04 08:03 51.83035 21.24024 22061 ft 380 kts 148°
2026-05-04 08:04 51.80942 21.26280 23209 ft 385 kts 147°
2026-05-04 08:04 51.78684 21.28713 24392 ft 392 kts 147°
2026-05-04 08:04 51.76392 21.31180 25497 ft 399 kts 147°
2026-05-04 08:04 51.74061 21.33685 26554 ft 406 kts 147°
2026-05-04 08:05 51.71726 21.36191 27559 ft 413 kts 147°
2026-05-04 08:05 51.69315 21.38775 28529 ft 420 kts 147°
2026-05-04 08:05 51.66855 21.41408 29487 ft 426 kts 146°
2026-05-04 08:05 51.64430 21.43904 30387 ft 431 kts 149°
2026-05-04 08:06 51.61792 21.46428 31255 ft 437 kts 149°
2026-05-04 08:06 51.59139 21.48972 32041 ft 444 kts 149°
2026-05-04 08:06 51.56474 21.51528 32860 ft 448 kts 149°
2026-05-04 08:06 51.53791 21.54100 33558 ft 454 kts 149°
2026-05-04 08:08 51.34361 21.72632 38770 ft 463 kts 149°
2026-05-04 08:08 51.31622 21.75236 39600 ft 461 kts 149°
2026-05-04 08:10 51.08771 21.96772 41027 ft 489 kts 149°
2026-05-04 08:11 51.05858 21.99492 41032 ft 485 kts 149°
2026-05-04 08:11 50.97127 22.07618 41032 ft 487 kts 149°
2026-05-04 08:12 50.91264 22.13056 41035 ft 489 kts 149°
2026-05-04 08:12 50.88287 22.15495 41021 ft 488 kts 160°
2026-05-04 08:12 50.84971 22.16452 41055 ft 486 kts 179°
2026-05-04 08:13 50.78208 22.15468 41041 ft 487 kts 187°
2026-05-04 08:13 50.71497 22.14227 41046 ft 487 kts 187°
2026-05-04 08:14 50.64781 22.12976 41045 ft 487 kts 187°
2026-05-04 08:16 50.37864 22.07994 41056 ft 488 kts 187°
2026-05-04 08:16 50.31124 22.06755 41064 ft 489 kts 187°
2026-05-04 08:17 50.24346 22.05513 41068 ft 490 kts 187°
2026-05-04 08:17 50.17584 22.04277 41075 ft 489 kts 187°
2026-05-04 08:19 49.90529 21.99368 41065 ft 491 kts 187°
2026-05-04 08:20 49.83744 21.98146 41076 ft 492 kts 187°
2026-05-04 08:20 49.76958 21.96927 41069 ft 491 kts 187°
2026-05-04 08:21 49.70150 21.95707 41077 ft 491 kts 187°
2026-05-04 08:21 49.63378 21.94497 41079 ft 492 kts 187°
2026-05-04 08:22 49.56592 21.93288 41086 ft 492 kts 187°
2026-05-04 08:24 49.29359 21.88471 41110 ft 493 kts 187°
2026-05-04 08:24 49.22562 21.87276 41103 ft 493 kts 186°
2026-05-04 08:25 49.15773 21.86087 41100 ft 493 kts 186°
2026-05-04 08:25 49.08916 21.84890 41102 ft 495 kts 187°
2026-05-04 08:27 48.81642 21.83151 41113 ft 495 kts 172°
2026-05-04 08:28 48.74837 21.84594 41120 ft 495 kts 172°
2026-05-04 08:28 48.68052 21.86029 41114 ft 494 kts 172°
2026-05-04 08:29 48.61237 21.87466 41119 ft 495 kts 172°
2026-05-04 08:31 48.34253 21.94536 41145 ft 491 kts 149°
2026-05-04 08:33 48.10902 22.15796 41138 ft 493 kts 147°
2026-05-04 08:35 47.87515 22.36924 41127 ft 492 kts 147°
2026-05-04 08:35 47.81659 22.42180 41133 ft 492 kts 147°
2026-05-04 08:37 47.68395 22.64766 41127 ft 486 kts 126°
2026-05-04 08:37 47.66295 22.68675 41138 ft 485 kts 127°
2026-05-04 08:38 47.62067 22.76529 41146 ft 485 kts 127°
2026-05-04 08:38 47.57879 22.84287 41147 ft 486 kts 127°
2026-05-04 08:40 47.40990 23.15344 41136 ft 486 kts 127°
2026-05-04 08:41 47.36744 23.23097 41124 ft 486 kts 127°
2026-05-04 08:41 47.32500 23.30824 41133 ft 486 kts 127°
2026-05-04 08:42 47.28248 23.38546 41134 ft 486 kts 127°
2026-05-04 08:42 47.23995 23.46246 41123 ft 486 kts 127°
2026-05-04 08:43 47.19755 23.53900 41131 ft 486 kts 127°
2026-05-04 08:43 47.15469 23.61615 41127 ft 485 kts 127°
2026-05-04 08:44 47.11215 23.69253 41133 ft 485 kts 127°
2026-05-04 08:46 46.94106 23.99757 41123 ft 485 kts 127°
2026-05-04 08:46 46.89816 24.07352 41125 ft 485 kts 127°
2026-05-04 08:47 46.85520 24.14937 41117 ft 484 kts 127°
2026-05-04 08:47 46.81216 24.22515 41118 ft 484 kts 127°
2026-05-04 08:48 46.76907 24.30080 41114 ft 484 kts 127°
2026-05-04 08:48 46.72609 24.37607 41114 ft 484 kts 127°
2026-05-04 08:49 46.68333 24.45073 41116 ft 483 kts 127°
2026-05-04 08:50 46.53249 24.71253 41120 ft 484 kts 128°
2026-05-04 08:51 46.48935 24.78696 41111 ft 484 kts 128°
2026-05-04 08:51 46.44608 24.86140 41118 ft 483 kts 128°
2026-05-04 08:52 46.40288 24.93552 41117 ft 483 kts 128°
2026-05-04 08:52 46.35965 25.00949 41111 ft 483 kts 128°
2026-05-04 08:54 46.18577 25.30502 41109 ft 483 kts 128°
2026-05-04 08:55 46.14207 25.37878 41109 ft 483 kts 128°
2026-05-04 08:55 46.09849 25.45218 41105 ft 483 kts 128°
2026-05-04 09:01 45.63804 26.21580 41094 ft 482 kts 129°
2026-05-04 09:01 45.59420 26.28744 41088 ft 481 kts 129°
2026-05-04 09:02 45.55035 26.35890 41095 ft 480 kts 129°
2026-05-04 09:02 45.50624 26.43058 41084 ft 480 kts 129°
2026-05-04 09:03 45.46218 26.50201 41079 ft 480 kts 129°
2026-05-04 09:03 45.41822 26.57310 41079 ft 480 kts 129°
2026-05-04 09:04 45.37402 26.64435 41090 ft 481 kts 129°
2026-05-04 09:04 45.33001 26.71517 41093 ft 480 kts 130°
2026-05-04 09:05 45.28584 26.78604 41085 ft 480 kts 130°
2026-05-04 09:05 45.24163 26.85680 41084 ft 480 kts 130°
2026-05-04 09:06 45.19746 26.92730 41083 ft 481 kts 130°
2026-05-04 09:08 45.01969 27.20929 41069 ft 483 kts 130°
2026-05-04 09:08 44.97531 27.27925 41066 ft 482 kts 130°
2026-05-04 09:09 44.93067 27.34944 41062 ft 480 kts 130°
2026-05-04 09:09 44.88562 27.42010 41071 ft 481 kts 130°
2026-05-04 09:10 44.84086 27.49014 41066 ft 481 kts 130°
2026-05-04 09:10 44.79608 27.56002 41070 ft 482 kts 130°
2026-05-04 09:11 44.75093 27.63031 41062 ft 483 kts 130°
2026-05-04 09:11 44.70614 27.69984 41065 ft 481 kts 131°
2026-05-04 09:12 44.66134 27.76924 41054 ft 481 kts 131°
2026-05-04 09:14 44.48087 28.04703 41059 ft 483 kts 131°
2026-05-04 09:14 44.43557 28.11632 41053 ft 481 kts 130°
2026-05-04 09:15 44.39062 28.18492 41061 ft 480 kts 131°
2026-05-04 09:15 44.34555 28.25353 41054 ft 482 kts 131°
2026-05-04 09:17 44.14142 28.56217 41045 ft 480 kts 130°
2026-05-04 09:18 44.09603 28.63035 41041 ft 480 kts 131°
2026-05-04 09:18 44.05058 28.69845 41035 ft 481 kts 131°
2026-05-04 09:19 44.00490 28.76673 41026 ft 481 kts 131°
2026-05-04 09:19 43.95947 28.83444 41028 ft 480 kts 131°
2026-05-04 09:20 43.91391 28.90223 41036 ft 480 kts 131°
2026-05-04 09:20 43.86822 28.97003 41028 ft 479 kts 131°
2026-05-04 09:21 43.82268 29.03744 41032 ft 479 kts 131°
2026-05-04 09:21 43.77708 29.10479 41026 ft 481 kts 131°
2026-05-04 09:22 43.73107 29.17255 41017 ft 481 kts 131°
2026-05-04 09:22 43.68528 29.23985 41019 ft 481 kts 131°
2026-05-04 09:23 43.63953 29.30693 41011 ft 480 kts 131°
2026-05-04 09:23 43.59346 29.37432 41005 ft 481 kts 131°
2026-05-04 09:25 43.41020 29.64078 40990 ft 482 kts 131°
2026-05-04 09:26 43.36395 29.70763 40995 ft 482 kts 132°
2026-05-04 09:26 43.31778 29.77422 40981 ft 482 kts 132°
2026-05-04 09:27 43.27157 29.84071 40984 ft 482 kts 132°
2026-05-04 09:27 43.22535 29.90703 40974 ft 481 kts 132°
2026-05-04 09:28 43.17874 29.97378 40967 ft 482 kts 132°
2026-05-04 09:28 43.13240 30.03999 40972 ft 483 kts 132°
2026-05-04 09:29 43.08575 30.10645 40959 ft 483 kts 132°
2026-05-04 09:29 43.03940 30.17238 40954 ft 483 kts 132°
2026-05-04 09:30 42.99259 30.23877 40939 ft 483 kts 132°
2026-05-04 09:30 42.94608 30.30460 40938 ft 483 kts 132°
2026-05-04 09:31 42.89925 30.37073 40929 ft 483 kts 132°
2026-05-04 09:31 42.85210 30.43715 40921 ft 485 kts 132°
2026-05-04 09:32 42.80536 30.50283 40930 ft 486 kts 132°
2026-05-04 09:34 42.71978 30.78449 40916 ft 478 kts 97°
2026-05-04 09:34 42.71525 30.82939 40909 ft 477 kts 97°
2026-05-04 09:34 42.70617 30.91811 40910 ft 478 kts 97°
2026-05-04 09:35 42.69691 31.00775 40896 ft 479 kts 97°
2026-05-04 09:35 42.68758 31.09727 40897 ft 477 kts 97°
2026-05-04 09:37 42.64964 31.45448 40879 ft 480 kts 97°
2026-05-04 09:38 42.63994 31.54409 40870 ft 480 kts 97°
2026-05-04 09:38 42.63017 31.63364 40863 ft 479 kts 97°
2026-05-04 09:39 42.62034 31.72312 40869 ft 481 kts 98°
2026-05-04 09:39 42.61050 31.81200 40863 ft 481 kts 98°
2026-05-04 09:40 42.60046 31.90205 40869 ft 481 kts 98°
2026-05-04 09:40 42.59042 31.99140 40858 ft 481 kts 98°
2026-05-04 09:42 42.54968 32.34907 40835 ft 481 kts 98°
2026-05-04 09:43 42.53927 32.43850 40813 ft 482 kts 98°
2026-05-04 09:43 42.52879 32.52797 40802 ft 482 kts 98°
2026-05-04 09:44 42.51822 32.61753 40803 ft 482 kts 98°
2026-05-04 09:46 42.47526 32.97537 40782 ft 483 kts 99°
2026-05-04 09:46 42.46431 33.06500 40780 ft 483 kts 99°
2026-05-04 09:47 42.45328 33.15467 40779 ft 483 kts 99°
2026-05-04 09:49 42.40847 33.51276 40766 ft 483 kts 99°
2026-05-04 09:51 42.36842 33.82529 40765 ft 484 kts 100°
2026-05-04 09:51 42.35679 33.91492 40760 ft 484 kts 100°
2026-05-04 09:52 42.34515 34.00420 40760 ft 484 kts 100°
2026-05-04 09:52 42.33351 34.09298 40758 ft 483 kts 101°
2026-05-04 09:53 42.32175 34.18210 40762 ft 483 kts 101°
2026-05-04 09:53 42.30986 34.27159 40754 ft 484 kts 101°
2026-05-04 09:54 42.29800 34.36045 40753 ft 484 kts 101°
2026-05-04 09:54 42.28596 34.44992 40765 ft 484 kts 101°
2026-05-04 09:55 42.27387 34.53920 40772 ft 485 kts 101°
2026-05-04 09:55 42.26166 34.62877 40759 ft 486 kts 101°
2026-05-04 09:56 42.24937 34.71836 40761 ft 486 kts 102°
2026-05-04 09:56 42.23707 34.80755 40769 ft 485 kts 102°
2026-05-04 09:57 42.22469 34.89650 40755 ft 486 kts 102°
2026-05-04 09:57 42.21217 34.98593 40758 ft 486 kts 102°
2026-05-04 09:58 42.19963 35.07505 40752 ft 486 kts 102°
2026-05-04 09:58 42.18698 35.16432 40774 ft 485 kts 102°
2026-05-04 10:00 42.13584 35.52049 40780 ft 485 kts 102°
2026-05-04 10:04 42.04397 36.14171 40797 ft 484 kts 103°
2026-05-04 10:04 42.03056 36.23040 40805 ft 484 kts 103°
2026-05-04 10:05 42.01708 36.31902 40810 ft 485 kts 103°
2026-05-04 10:05 42.00363 36.40701 40817 ft 485 kts 103°
2026-05-04 10:06 41.98994 36.49605 40814 ft 484 kts 103°
2026-05-04 10:06 41.97631 36.58424 40812 ft 484 kts 103°
2026-05-04 10:08 41.92806 36.89274 40815 ft 485 kts 104°
2026-05-04 10:08 41.91412 36.98080 40818 ft 484 kts 104°
2026-05-04 10:09 41.89687 37.06736 40828 ft 479 kts 114°
2026-05-04 10:09 41.87093 37.15017 40819 ft 482 kts 115°
2026-05-04 10:10 41.84484 37.23309 40820 ft 482 kts 115°
2026-05-04 10:10 41.81877 37.31565 40823 ft 482 kts 115°
2026-05-04 10:11 41.79264 37.39817 40826 ft 482 kts 115°
2026-05-04 10:11 41.76643 37.48067 40820 ft 481 kts 115°
2026-05-04 10:12 41.74030 37.56268 40823 ft 481 kts 115°
2026-05-04 10:12 41.71402 37.64490 40825 ft 482 kts 115°
2026-05-04 10:13 41.68757 37.72744 40827 ft 482 kts 116°
2026-05-04 10:13 41.66109 37.80987 40820 ft 481 kts 116°
2026-05-04 10:14 41.63457 37.89213 40828 ft 481 kts 116°
2026-05-04 10:16 41.52823 38.21961 40826 ft 483 kts 116°
2026-05-04 10:16 41.50145 38.30148 40836 ft 483 kts 116°
2026-05-04 10:17 41.47464 38.38318 40816 ft 482 kts 116°
2026-05-04 10:19 41.36632 38.71082 40812 ft 483 kts 117°
2026-05-04 10:19 41.33923 38.79221 40835 ft 484 kts 117°
2026-05-04 10:20 41.31242 38.87431 40822 ft 485 kts 116°
2026-05-04 10:20 41.28548 38.95655 40828 ft 485 kts 116°
2026-05-04 10:21 41.25855 39.03853 40829 ft 485 kts 117°
2026-05-04 10:21 41.23159 39.12038 40811 ft 485 kts 117°
2026-05-04 10:22 41.18986 39.24280 40838 ft 487 kts 118°
2026-05-04 10:23 41.16146 39.32411 40856 ft 487 kts 118°
2026-05-04 10:25 41.04668 39.65049 40863 ft 488 kts 119°
2026-05-04 10:25 41.01769 39.73237 40865 ft 487 kts 119°
2026-05-04 10:26 40.98944 39.81235 40853 ft 487 kts 118°
2026-05-04 10:26 40.96143 39.89362 40859 ft 488 kts 118°
2026-05-04 10:27 40.93306 39.97565 40846 ft 488 kts 118°
2026-05-04 10:27 40.90472 40.05733 40861 ft 488 kts 118°
2026-05-04 10:28 40.87644 40.13858 40865 ft 487 kts 118°
2026-05-04 10:28 40.84802 40.22007 40859 ft 489 kts 118°
2026-05-04 10:29 40.81945 40.30168 40859 ft 488 kts 119°
2026-05-04 10:29 40.79097 40.38285 40865 ft 487 kts 119°
2026-05-04 10:30 40.76243 40.46397 40891 ft 488 kts 119°
2026-05-04 10:30 40.73391 40.54482 40915 ft 487 kts 119°
2026-05-04 10:31 40.70513 40.62617 40918 ft 488 kts 118°
2026-05-04 10:32 40.60449 40.90879 40909 ft 489 kts 120°
2026-05-04 10:33 40.57560 40.98941 40914 ft 489 kts 120°
2026-05-04 10:33 40.54663 41.07007 40920 ft 487 kts 119°
2026-05-04 10:34 40.51754 41.15079 40919 ft 488 kts 120°
2026-05-04 10:34 40.48844 41.23128 40917 ft 490 kts 120°
2026-05-04 10:35 40.45921 41.31198 40922 ft 488 kts 120°
2026-05-04 10:35 40.42999 41.39239 40922 ft 488 kts 120°
2026-05-04 10:36 40.40086 41.47235 40927 ft 485 kts 120°
2026-05-04 10:36 40.38667 41.51132 40917 ft 465 kts 120°
2026-05-04 10:36 40.37296 41.54883 40797 ft 454 kts 121°
2026-05-04 10:37 40.35915 41.58644 40402 ft 458 kts 121°
2026-05-04 10:37 40.34545 41.62379 39922 ft 462 kts 120°
2026-05-04 10:37 40.33151 41.66175 39412 ft 463 kts 121°
2026-05-04 10:37 40.31752 41.69981 38910 ft 462 kts 121°
2026-05-04 10:39 40.23399 41.92614 35833 ft 463 kts 122°
2026-05-04 10:39 40.21993 41.96408 35367 ft 462 kts 122°
2026-05-04 10:39 40.20583 42.00202 34915 ft 461 kts 122°
2026-05-04 10:40 40.19181 42.03975 34384 ft 461 kts 122°
2026-05-04 10:40 40.17768 42.07772 33841 ft 460 kts 123°
2026-05-04 10:40 40.16373 42.11511 33289 ft 462 kts 123°
2026-05-04 10:40 40.14951 42.15321 32767 ft 465 kts 123°
2026-05-04 10:41 40.13558 42.19051 32267 ft 456 kts 123°
2026-05-04 10:41 40.12198 42.22695 31771 ft 444 kts 123°
2026-05-04 10:41 40.10861 42.26264 31284 ft 434 kts 124°
2026-05-04 10:41 40.09546 42.29769 30810 ft 428 kts 124°
2026-05-04 10:42 40.08241 42.33237 30336 ft 425 kts 124°
2026-05-04 10:42 40.06933 42.36716 29857 ft 421 kts 124°
2026-05-04 10:42 40.05648 42.40127 29386 ft 419 kts 124°
2026-05-04 10:42 40.04678 42.43712 28896 ft 436 kts 107°
2026-05-04 10:43 40.04656 42.47700 28434 ft 446 kts 91°
2026-05-04 10:44 40.06388 42.74875 25095 ft 417 kts 92°
2026-05-04 10:45 40.06613 42.78655 24635 ft 412 kts 92°
2026-05-04 10:45 40.06805 42.81856 24243 ft 411 kts 92°
2026-05-04 10:45 40.07024 42.85549 23779 ft 409 kts 92°
2026-05-04 10:45 40.07243 42.89262 23340 ft 404 kts 92°
2026-05-04 10:46 40.07460 42.92931 22904 ft 400 kts 92°
2026-05-04 10:46 40.07670 42.96512 22471 ft 398 kts 92°
2026-05-04 10:46 40.07881 43.00104 22033 ft 397 kts 92°
2026-05-04 10:46 40.08087 43.03641 21610 ft 393 kts 92°
2026-05-04 10:47 40.08292 43.07173 21180 ft 389 kts 92°
2026-05-04 10:47 40.08493 43.10689 20758 ft 386 kts 92°
2026-05-04 10:47 40.08691 43.14164 20327 ft 386 kts 92°
2026-05-04 10:47 40.08892 43.17665 19895 ft 384 kts 92°
2026-05-04 10:49 40.10203 43.41156 17012 ft 360 kts 92°
2026-05-04 10:49 40.10379 43.44382 16613 ft 357 kts 91°
2026-05-04 10:50 40.10553 43.47607 16204 ft 356 kts 91°
2026-05-04 10:51 40.12500 43.68866 13354 ft 332 kts 67°
2026-05-04 10:52 40.13563 43.71575 12589 ft 337 kts 66°
2026-05-04 10:52 40.14642 43.74308 12097 ft 331 kts 66°
2026-05-04 10:52 40.15565 43.76993 11700 ft 317 kts 81°
2026-05-04 10:54 40.15076 43.95032 8185 ft 262 kts 97°
2026-05-04 10:54 40.14972 43.97387 7882 ft 259 kts 97°
2026-05-04 10:56 40.14576 44.13415 6288 ft 246 kts 92°
2026-05-04 10:56 40.14588 44.15630 6003 ft 244 kts 92°
2026-05-04 10:56 40.14602 44.17820 5718 ft 236 kts 92°
2026-05-04 10:57 40.14616 44.19817 5380 ft 203 kts 92°
2026-05-04 10:57 40.14629 44.21574 5139 ft 178 kts 93°
2026-05-04 10:57 40.14641 44.23045 4908 ft 147 kts 93°
2026-05-04 10:57 40.14650 44.24261 4692 ft 128 kts 94°
2026-05-04 10:58 40.14653 44.25435 4546 ft 129 kts 94°
2026-05-04 10:58 40.14658 44.26607 4397 ft 129 kts 94°
2026-05-04 10:58 40.14665 44.27789 4237 ft 129 kts 94°
2026-05-04 10:58 40.14672 44.28960 4075 ft 128 kts 94°
2026-05-04 10:59 40.14678 44.30114 3914 ft 127 kts 94°
2026-05-04 10:59 40.14684 44.31263 3751 ft 125 kts 94°
2026-05-04 10:59 40.14690 44.32392 3596 ft 124 kts 94°
2026-05-04 10:59 40.14697 44.33502 3444 ft 122 kts 94°
2026-05-04 11:00 40.14709 44.34630 3264 ft 122 kts 93°
2026-05-04 11:01 40.14734 44.39958 2857 ft 12 kts 88°
2026-05-04 11:02 40.14781 44.40029 2857 ft 10 kts
2026-05-04 11:02 40.14851 44.40029 2857 ft 9 kts 359°
2026-05-04 11:05 40.14985 44.40949 2858 ft 7 kts 90°
2026-05-04 11:06 40.14986 44.41013 2858 ft 6 kts 89°
2026-05-04 11:06 40.14986 44.41082 2858 ft 9 kts 89°
2026-05-04 11:06 40.14987 44.41193 2858 ft 15 kts 90°
2026-05-04 11:06 40.14987 44.41341 2858 ft 15 kts 89°
2026-05-04 11:08 40.15083 44.41432 2859 ft 0 kts 359°